Location: Forst
(46.9333°N, 15.4333°E)
Time: 16:18:25
(UTC+00:00)

CSL-04 Debris - Pass Details

Date: 01 December 2020
Orbit: 826 x 848 km, 98.9° (Epoch: 27 January)

Event Time Altitude Azimuth Distance (km) Brightness Sun altitude
Exits shadow 17:27:26 48° 99° (E) 1,097 4.3 -22.5°
Maximum altitude 17:28:16 53° 69° (ENE) 1,039 4.2 -22.6°
Drops below altitude 10° 17:33:36 10° 354° (N) 2,481 6.6 -23.5°
Sets 17:36:01 0° 350° (N) 3,418 7.4 -24.0°
